User: anonymous   Login
Location: Hancock Field Station
(44.9202°N, 120.4259°W)
Time: 05:21:38
(UTC-08:00)
Language:

Nadezhda 4 Rocket - Orbit

View from above orbital plane
View from above orbital plane
View from above satellite
View from above satellite

Ground track
Ground track

The orbit data is extracted from the following two-line orbital elements,

1 23180U 94041B   17022.67341600 -.00000024  00000-0 -39051-4 0  9991
2 23180  82.9435  39.3118 0027537 272.7647 226.5105 13.77937346132862
Epoch (UTC): 22 January 2017 16:09:43
Eccentricity: 0.0027537
inclination: 82.9435°
perigee height: 951 km
apogee height: 991 km
right ascension of ascending node: 39.3118°
argument of perigee: 272.7647°
revolutions per day: 13.77937346
mean anomaly at epoch: 226.5105°
orbit number at epoch: 13286

The dashed part of the orbit path shows where the satellite is in the earth's shadow,  

DLR